Location: Chuathbaluk
(61.5726°N, 159.2454°W)
Time: 04:18:45
(UTC+00:00)

Transit 2A - Pass Details

Date: 05 December 2020
Orbit: 599 x 960 km, 66.7° (Epoch: 26 January)

Event Time Altitude Azimuth Distance (km) Brightness Sun altitude
Rises 12:24:35 0° 307° (NW) 3,302 - -46.1°
Reaches altitude 10° 12:28:55 10° 275° (W) 2,264 - -45.7°
Maximum altitude 12:30:25 11° 257° (WSW) 2,142 - -45.6°
Drops below altitude 10° 12:31:52 10° 240° (WSW) 2,191 - -45.5°
Sets 12:35:51 0° 206° (SSW) 3,013 - -45.2°
